STARLINK-4052 (53171 NORAD) Tracking and Keplerian Element Data

This shows tracking and keplerian element data for the satellite.

Feedback or suggestion? Click here.




ElementValue
Catalog53171
NameSTARLINK-4052
Epoch Orbit130
Epoch Day269.91667824
Epoch Year2022
RAAN53.8301
Inclination53.2138
Eccentricity0.0003692
Argument of Perigee2.1397
Mean Anonmoly26.6888
Mean Motion15.73184098
Decay Rate0.00017887
L11 53171U 22083AR 22269.91667824 .00017887 00000+0 13166-3 0 9996
L22 53171 53.2138 53.8301 0003692 2.1397 26.6888 15.73184098 1301

Live tracking and technical data element details for STARLINK-4052 (NORAD 53171). STARLINK-4052 can be tracked NOW for your location showing map with azimuth and elevation plus other details from your city location.

Track the satellite on the map from your city or location and see movement details for azimuth, elevation, latitude, longitude, range, height, and movement on the map or in text.







IsCatalogInMostPopularTable: catalog: 53171, numindb: 3
Update: records affected: 1



GetName: 53171 STARLINK-4052

Hit Count: updated at: Fri, 30 Sep 2022 04:19:41 GMT